Wind_Speed
39 38 36 34 33 33 33 34 35 36 39 40 39 36 34 35 35 34 33 31 29 28 26 25 23 21 21 21 21 23 25 28 29 31 32 33 32 31 30 29 28 28 29 29
39 38 35 35 36 35 35 35 34 34 39 43 43 40 37 36 37 37 35 33 31 29 28 27 25 23 22 22 23 25 27 29 32 34 35 35 35 34 33 31 27 27 28 28
39 36 35 36 36 35 35 34 33 34 38 42 43 43 40 39 39 37 36 34 32 30 29 28 28 26 25 24 26 27 30 32 35 36 37 38 36 34 34 29 27 27 27 28
39 37 36 36 36 36 34 32 32 33 36 39 42 43 40 39 38 37 36 35 33 32 31 30 30 28 28 27 29 31 33 36 37 37 38 40 38 37 35 31 29 28 28 28
37 35 36 36 34 34 31 31 32 34 36 38 40 41 38 36 37 36 36 36 35 34 33 32 32 31 31 31 32 34 36 38 38 39 40 41 40 39 35 32 31 30 30 31
35 35 35 35 34 33 32 33 34 35 36 37 36 38 38 35 35 36 37 37 36 36 35 34 34 34 34 34 35 38 39 41 41 43 43 42 41 38 37 36 35 33 34 35
33 34 34 35 35 34 33 33 34 34 35 34 32 35 36 35 35 36 36 36 36 36 36 36 35 36 36 36 38 40 41 42 43 43 43 43 42 40 39 39 38 37 38 39
28 29 31 32 32 31 31 32 33 32 31 30 30 33 33 34 34 34 35 35 35 35 35 35 35 36 37 38 39 39 40 41 42 41 42 41 41 40 39 39 40 41 42 44
22 23 25 27 28 29 31 32 30 30 29 28 29 31 32 32 32 32 32 33 33 33 33 33 34 34 35 35 36 37 39 39 40 41 42 42 43 42 42 43 43 44 47 49
20 20 22 24 28 30 31 32 30 30 29 28 28 28 28 29 29 30 30 30 31 31 31 31 31 31 32 33 34 36 38 39 41 42 43 44 44 44 45 46 48 49 52 54
20 21 21 24 29 31 32 32 32 31 29 28 27 26 26 27 28 29 30 30 30 30 30 30 30 31 33 34 36 37 40 41 43 44 45 47 47 48 49 50 52 54 56 58
20 20 22 25 29 32 33 33 32 31 29 28 27 26 26 26 27 28 29 30 31 31 32 32 32 33 35 37 38 40 42 44 45 47 49 51 52 53 54 55 56 58 59 60
21 21 22 25 29 32 34 34 32 31 31 30 29 29 28 29 29 30 31 32 33 33 34 34 35 37 38 40 42 43 45 47 49 50 52 54 55 57 58 59 59 60 60 60
23 24 24 26 28 30 32 33 33 33 33 33 32 32 32 33 33 34 34 34 35 35 36 37 38 39 41 42 44 46 48 50 52 54 55 57 58 59 60 60 60 60 60 59
26 27 27 28 29 31 32 33 34 35 36 36 36 36 36 37 37 38 38 38 38 38 39 39 40 42 44 46 48 50 51 52 55 57 58 59 60 60 60 59 59 59 58 58
28 29 30 30 32 33 34 35 36 37 37 37 38 39 40 40 39 39 39 39 40 40 41 42 43 45 47 49 51 52 54 56 57 58 58 58 58 58 58 58 58 57 57 56
30 30 31 33 34 35 35 35 36 37 38 38 37 37 39 40 40 40 41 41 42 42 42 44 46 48 50 52 54 56 56 57 57 57 57 56 56 56 56 56 55 54 53 52
29 31 32 32 34 36 35 35 35 35 35 35 36 36 37 37 38 38 39 39 40 42 43 45 47 49 51 53 54 55 55 55 55 55 55 54 54 53 53 51 50 49 49 48
26 28 30 31 33 33 34 34 34 34 35 35 36 36 36 36 37 38 39 40 42 43 44 46 47 49 51 52 52 53 53 53 53 53 52 51 50 49 48 47 46 46 45 45
22 24 26 27 28 29 30 30 31 32 33 33 34 34 35 36 37 37 38 39 40 42 44 45 47 49 49 50 51 51 51 50 49 48 47 46 45 45 44 44 43 43 43 43
19 20 21 22 23 25 25 26 26 27 28 30 31 33 34 35 36 37 38 39 41 42 43 45 46 46 47 47 47 47 47 46 45 44 43 42 41 41 41 41 42 42 42 43
16 17 18 18 20 21 22 22 23 24 25 26 28 29 31 32 34 35 36 37 38 40 41 42 43 43 43 43 42 42 41 40 40 39 38 38 39 39 40 40 40 41 41 41
14 14 15 16 17 16 17 19 20 21 22 23 25 26 27 29 31 32 33 34 35 36 37 38 38 38 37 37 37 36 36 35 35 35 36 36 37 38 38 39 39 39 38 37
13 13 13 14 15 16 15 16 18 19 20 22 24 25 26 28 29 30 31 31 31 32 32 32 32 32 32 31 31 31 31 31 32 33 35 36 37 38 38 37 36 35 32 30
12 12 12 12 13 13 14 15 17 18 19 21 23 24 25 25 26 27 27 27 27 27 26 26 26 26 26 26 26 28 29 31 32 34 35 36 36 35 34 32 30 28 26 23
12 11 11 11 12 12 13 15 16 17 18 19 20 21 22 22 23 23 22 21 21 21 21 21 20 21 22 23 25 27 29 31 33 34 34 34 32 30 28 26 24 21 20 18
Wind_Direction
238 238 237 236 236 236 235 233 231 229 234 238 242 244 244 249 255 259 260 260 259 259 260 261 263 269 277 285 291 296 298 300 298 300 299 299 296 295 295 288 286 287 285 283
237 237 235 233 234 234 234 234 231 229 231 237 241 244 246 249 254 257 259 259 259 259 259 260 264 269 276 282 287 291 293 295 295 295 295 293 296 294 296 295 295 295 294 292
237 235 233 233 234 234 235 235 233 229 229 236 241 244 246 249 251 254 257 258 258 258 260 260 263 267 271 277 282 286 290 292 292 292 289 288 291 294 295 297 303 302 299 297
233 231 231 231 233 234 235 235 234 232 231 235 240 243 244 246 248 252 255 257 257 258 259 260 262 264 268 274 279 282 286 288 288 288 286 288 291 295 299 302 306 305 304 301
232 231 230 230 231 233 234 234 234 233 233 235 241 246 244 244 246 249 253 255 257 258 258 258 260 263 268 274 279 282 285 286 286 287 286 287 291 295 303 308 308 308 307 304
228 229 228 228 228 230 229 231 233 234 236 237 239 246 249 245 245 248 251 254 255 257 258 259 262 265 270 275 278 281 283 285 285 286 285 286 290 298 305 310 307 304 304 303
226 227 227 226 225 226 225 226 230 233 236 239 238 244 250 250 249 250 251 253 255 257 259 262 264 266 270 273 276 277 279 281 283 284 286 289 293 302 305 308 306 304 304 303
225 226 227 227 227 226 222 224 228 233 236 238 238 242 247 250 250 251 252 253 254 256 258 261 263 266 269 272 274 274 276 278 281 285 290 294 302 306 307 306 306 304 304 303
221 222 223 224 220 220 219 223 227 233 235 237 237 241 245 247 249 250 251 252 253 256 258 261 264 266 267 269 271 273 276 280 283 288 295 300 302 304 305 305 304 304 304 303
214 213 213 214 214 215 219 222 226 232 234 236 238 240 245 246 248 249 250 252 254 256 259 262 264 265 266 268 271 274 279 285 288 292 296 299 301 303 304 304 304 303 303 303
214 211 203 207 210 212 217 222 228 232 236 238 240 243 246 251 252 251 251 253 255 257 259 261 265 267 270 272 275 279 283 287 291 294 296 297 297 299 301 301 302 302 302 302
222 219 207 206 210 214 221 225 228 232 236 239 243 248 249 253 255 256 257 258 260 262 263 266 269 272 275 277 280 283 285 289 291 292 294 296 296 298 299 300 300 301 301 301
232 231 220 216 218 219 225 229 232 236 239 241 243 249 252 255 257 259 261 262 265 267 269 271 274 276 279 281 283 285 287 289 291 293 294 295 297 298 298 299 300 300 300 299
241 239 232 227 227 228 232 235 238 240 242 244 246 250 253 255 257 259 261 263 265 268 271 274 276 279 282 284 286 287 288 290 291 293 295 297 298 299 299 299 299 299 299 298
250 246 240 236 234 234 236 238 241 243 245 246 247 248 252 255 257 259 261 262 265 268 271 274 279 282 284 285 287 288 290 292 293 295 297 298 299 299 299 299 299 298 297 297
255 253 249 245 242 241 241 243 245 247 249 251 251 252 253 255 256 259 261 263 265 268 273 277 280 283 285 287 289 292 294 296 297 298 298 298 298 298 298 298 297 297 297 296
258 258 256 252 250 248 249 249 251 252 253 255 257 259 257 257 259 261 263 265 267 272 276 280 283 286 289 291 293 295 296 296 296 297 297 297 297 297 297 297 296 296 296 295
261 260 261 259 257 254 254 256 259 262 264 266 265 266 267 267 267 268 270 273 276 279 282 284 287 289 291 292 294 295 295 296 296 296 296 296 296 297 297 296 296 296 296 296
265 263 263 263 263 263 261 261 263 265 266 267 269 270 270 271 273 274 275 277 280 282 284 286 287 289 291 292 293 294 295 295 296 296 296 296 297 297 297 297 296 296 296 296
271 269 267 266 266 267 265 264 264 265 265 264 265 266 268 269 271 273 275 277 279 281 283 285 287 289 291 292 293 294 295 295 296 296 296 296 296 297 297 297 297 297 297 297
278 274 271 270 269 268 268 267 266 265 265 265 264 265 266 268 270 272 274 276 279 281 284 286 288 290 291 292 293 294 295 295 296 296 297 297 297 297 297 297 298 298 298 298
280 276 273 271 269 267 266 265 264 264 265 265 266 266 267 269 271 274 276 278 280 283 284 286 288 290 291 292 293 294 295 295 296 297 297 297 297 298 298 299 299 299 300 300
282 278 274 271 270 269 265 262 263 265 265 265 266 268 269 271 273 275 278 280 282 284 286 288 289 291 292 293 294 295 296 297 298 298 299 300 300 301 301 301 302 302 302 302
283 280 274 271 271 268 269 267 266 267 268 267 268 269 271 273 274 277 279 281 283 285 287 289 291 292 293 295 296 297 299 300 301 302 303 303 303 304 304 304 304 304 304 304
286 282 278 274 272 269 270 271 272 272 270 270 271 271 272 273 275 277 279 281 283 286 290 292 294 296 298 300 301 303 304 305 306 306 306 306 306 307 306 306 306 306 306 306
287 284 281 277 274 274 275 275 275 274 274 274 273 273 274 274 275 278 280 282 286 290 294 297 300 302 305 307 308 309 310 310 310 310 310 310 310 309 309 309 309 309 310 311
Height
5796 5802 5806 5811 5814 5819 5822 5826 5829 5833 5834 5835 5838 5841 5845 5846 5847 5849 5851 5852 5854 5857 5859 5860 5862 5863 5864 5864 5864 5862 5860 5857 5855 5852 5848 5845 5841 5839 5838 5835 5833 5832 5830 5828
5791 5796 5800 5803 5806 5810 5814 5818 5823 5828 5829 5829 5831 5834 5839 5841 5842 5844 5846 5847 5849 5851 5852 5854 5856 5857 5858 5858 5857 5856 5854 5852 5849 5846 5843 5839 5835 5832 5829 5826 5824 5824 5823 5821
5784 5790 5793 5796 5799 5803 5807 5812 5816 5820 5821 5821 5824 5828 5833 5835 5836 5838 5840 5842 5842 5844 5846 5848 5849 5850 5851 5851 5851 5849 5848 5845 5842 5839 5836 5832 5828 5824 5822 5820 5818 5818 5817 5815
5775 5781 5785 5789 5793 5796 5801 5805 5808 5811 5814 5815 5817 5820 5826 5829 5831 5833 5834 5835 5836 5837 5839 5841 5842 5843 5844 5844 5843 5842 5841 5838 5836 5832 5828 5824 5820 5816 5815 5812 5812 5811 5809 5808
5770 5774 5778 5782 5787 5790 5794 5797 5799 5802 5805 5808 5810 5812 5819 5822 5825 5827 5828 5828 5829 5831 5832 5834 5835 5836 5837 5837 5836 5834 5833 5831 5828 5824 5821 5818 5814 5810 5808 5806 5804 5804 5803 5801
5763 5767 5771 5776 5780 5783 5786 5789 5792 5795 5798 5803 5806 5807 5811 5816 5818 5820 5821 5821 5822 5824 5825 5827 5828 5829 5829 5829 5828 5827 5825 5823 5820 5817 5814 5810 5806 5802 5801 5799 5798 5796 5796 5794
5756 5761 5765 5769 5773 5776 5779 5783 5786 5789 5792 5797 5801 5802 5805 5808 5810 5812 5813 5814 5815 5817 5818 5819 5821 5822 5822 5822 5821 5819 5817 5815 5813 5810 5805 5801 5799 5796 5793 5792 5791 5789 5788 5785
5751 5756 5760 5764 5768 5771 5774 5778 5782 5785 5788 5792 5794 5796 5799 5801 5803 5804 5806 5807 5808 5809 5811 5812 5813 5814 5814 5814 5813 5812 5810 5807 5804 5801 5798 5794 5791 5788 5786 5785 5784 5782 5779 5777
5747 5752 5755 5759 5763 5767 5770 5773 5777 5780 5782 5786 5788 5791 5793 5794 5796 5797 5799 5800 5801 5803 5804 5805 5806 5806 5807 5806 5805 5804 5802 5799 5795 5793 5790 5787 5784 5782 5780 5777 5775 5773 5770 5767
5743 5747 5751 5755 5759 5762 5766 5769 5772 5775 5777 5780 5782 5785 5787 5788 5790 5791 5793 5794 5795 5797 5798 5799 5799 5799 5799 5799 5798 5795 5794 5791 5788 5785 5782 5779 5776 5774 5772 5769 5766 5762 5759 5755
5740 5743 5747 5750 5754 5757 5761 5764 5767 5770 5772 5775 5777 5782 5782 5783 5784 5786 5787 5788 5790 5791 5791 5792 5792 5792 5791 5790 5789 5787 5785 5783 5780 5777 5774 5771 5768 5765 5762 5759 5755 5751 5747 5742
5737 5740 5743 5746 5749 5752 5755 5758 5762 5765 5768 5770 5773 5778 5776 5778 5779 5780 5781 5782 5783 5784 5785 5785 5785 5784 5783 5782 5780 5779 5777 5774 5771 5768 5765 5762 5758 5755 5751 5747 5743 5738 5733 5728
5734 5737 5740 5743 5747 5748 5750 5752 5756 5760 5762 5765 5768 5772 5771 5772 5773 5774 5775 5776 5776 5776 5777 5777 5777 5776 5775 5773 5772 5770 5767 5764 5761 5758 5754 5751 5747 5743 5738 5734 5729 5724 5719 5714
5730 5732 5736 5739 5741 5743 5745 5748 5751 5754 5756 5758 5761 5763 5764 5765 5766 5766 5767 5768 5768 5768 5768 5768 5768 5767 5765 5764 5762 5760 5757 5754 5750 5747 5743 5739 5734 5730 5725 5720 5715 5710 5704 5699
5725 5727 5729 5732 5734 5737 5739 5741 5744 5747 5749 5752 5754 5755 5756 5757 5758 5758 5759 5759 5759 5759 5759 5759 5758 5757 5755 5753 5751 5748 5745 5742 5738 5734 5730 5726 5721 5716 5711 5705 5700 5695 5690 5684
5718 5720 5722 5725 5727 5729 5731 5734 5737 5739 5741 5743 5745 5747 5748 5748 5749 5749 5749 5749 5749 5749 5749 5748 5747 5746 5744 5742 5739 5736 5733 5729 5725 5721 5716 5712 5707 5702 5696 5691 5686 5681 5675 5670
5712 5714 5716 5718 5719 5721 5725 5727 5729 5731 5733 5735 5737 5739 5738 5739 5739 5740 5740 5740 5740 5739 5739 5738 5736 5734 5732 5729 5726 5723 5719 5715 5711 5707 5702 5698 5693 5688 5682 5677 5672 5667 5661 5657
5705 5706 5708 5710 5713 5715 5719 5719 5721 5723 5725 5727 5728 5729 5730 5730 5730 5730 5730 5730 5729 5728 5728 5726 5725 5722 5720 5717 5713 5710 5706 5701 5697 5693 5688 5683 5678 5673 5668 5663 5658 5653 5648 5644
5698 5700 5701 5702 5704 5706 5710 5711 5713 5714 5716 5718 5719 5720 5720 5721 5721 5720 5720 5720 5719 5718 5717 5715 5713 5710 5708 5704 5701 5697 5692 5688 5683 5679 5674 5669 5664 5659 5655 5650 5645 5641 5636 5632
5692 5693 5695 5695 5697 5699 5702 5703 5704 5707 5708 5709 5710 5711 5711 5712 5712 5712 5711 5710 5709 5707 5706 5704 5702 5699 5695 5692 5688 5684 5679 5675 5670 5665 5661 5656 5652 5647 5642 5638 5634 5629 5625 5620
5687 5687 5688 5689 5690 5691 5693 5694 5696 5700 5700 5700 5700 5701 5702 5702 5703 5702 5701 5700 5699 5697 5696 5693 5690 5687 5684 5680 5676 5672 5667 5663 5658 5653 5649 5644 5640 5636 5631 5627 5622 5618 5614 5609
5683 5683 5683 5684 5685 5688 5686 5687 5690 5691 5691 5692 5692 5692 5693 5693 5693 5692 5691 5690 5689 5687 5685 5683 5680 5676 5673 5669 5665 5661 5656 5652 5647 5643 5638 5634 5629 5625 5620 5616 5611 5607 5602 5598
5679 5680 5679 5680 5682 5681 5680 5681 5682 5683 5684 5684 5685 5685 5685 5685 5684 5684 5683 5682 5680 5678 5676 5673 5670 5667 5663 5659 5655 5651 5646 5642 5638 5633 5628 5624 5619 5614 5610 5605 5600 5596 5591 5587
5676 5676 5676 5676 5676 5676 5676 5676 5677 5677 5677 5678 5678 5678 5678 5677 5677 5676 5675 5674 5672 5670 5668 5665 5662 5658 5654 5650 5646 5642 5638 5633 5629 5624 5619 5614 5609 5604 5599 5594 5590 5586 5582 5578
5673 5672 5672 5672 5673 5673 5672 5672 5672 5672 5671 5671 5671 5670 5670 5670 5669 5669 5668 5666 5665 5663 5660 5657 5654 5651 5647 5643 5639 5635 5630 5625 5620 5615 5610 5604 5599 5594 5590 5585 5581 5578 5574 5571
5669 5670 5669 5669 5669 5669 5669 5668 5667 5666 5666 5665 5664 5664 5663 5663 5663 5662 5661 5660 5658 5656 5654 5651 5648 5645 5641 5637 5632 5628 5623 5617 5612 5606 5601 5595 5590 5586 5582 5578 5574 5571 5569 5566